Вернуться в каталог

QIANFAN-73

АктивенСвязьPO
NORAD 63159·PAYLOAD·🇨🇳 China

Запущен Mar 11, 2025 с Wenchang Space Launch Site

Loading…

Ближайшие Пролёты (ближайшие 24 часа)

TLE

СвежийSource: Space-Track

Эпоха: Sep 14, 2026, 13:32 UTC

1 63159U 25046A   26257.56389287  .00000033  00000-0  31693-4 0  9993
2 63159  88.9650 291.3865 0016478  52.2184 308.0457 13.51025047 84652

Отслеживайте QIANFAN-73 в реальном времени с AllMySat

Download on the App Store